Дата Пункты Температура Давл., мм. Влажн., % Ветер Погодные явления
Воздуха Воды Направл. Скорость
05.12.17 08:00 Одесса 1.0 7.0 761 86 З 2 08 часов
05.12.17 05:00 Одесса 2.0 8.0 760 85 С-З 1 05 часов
05.12.17 02:00 Одесса 3.0 8.0 760 84 С-З 1 02 часа
04.12.17 11:00 Одесса 3.0 8.0 760 83 С-З 1 23 часа
04.12.17 08:00 Одесса 4.0 8.0 760 85 С-З 1 20 часов
04.12.17 05:00 Одесса 4.0 8.0 760 81 З 1 17 часов
04.12.17 02:00 Одесса 5.0 8.0 760 81 С 2 14 часов
04.12.17 11:00 Одесса 4.0 8.0 760 86 С-З 2 11 часов
04.12.17 08:00 Одесса 4.0 8.0 760 94 С-З 2 08 часов
04.12.17 05:00 Одесса 5.0 8.0 759 95 З 2 05 часов
04.12.17 02:00 Одесса 6.0 8.0 759 96 З 2 02 часа
03.12.17 11:00 Одесса 9.0 8.0 758 98 З 2 23 часа
03.12.17 08:00 Одесса 11.0 8.0 758 97 Ю-З 2 20 часов
03.12.17 05:00 Одесса 9.0 8.0 759 100 Ю-В 2 17 часов
03.12.17 02:00 Одесса 7.0 8.0 760 100 В 4 14 часов
03.12.17 11:00 Одесса 5.0 8.0 762 94 С 3 11 часов
03.12.17 08:00 Одесса 5.0 8.0 762 95 С 2 08 часов
03.12.17 05:00 Одесса 5.0 8.0 762 95 С 2 05 часов
03.12.17 02:00 Одесса 5.0 8.0 762 94 С 2 02 часа
02.12.17 11:00 Одесса 6.0 8.0 761 94 С-З 2 23 часа
Количество строк
1 2 3 4 5 6 7 8 9 10
Page 4 of 305